When you browse on this site, cookies collect data to enhance your experience and personalize the content and advertising you see.
Visit our Privacy Policy to learn more. By continuing to use the site, you agree to this use of cookies and data.
  • Em Portugal
  • Lista de países
  • Para 7 dias
  • Temperatura da água
  • Mapa do tempo
  • Widgets de tempo
  • user-avatar
    Iniciar Sessão

    Previsão horária em Mordarka

    Hoje, 20 Setembro, Sexta-feira

    Tempo Temperatura Precipitação Vento Pressão Humidade
    00:00 +3°C° 0 mm 2 m/s 725 mmHg 93%
    01:00 +3°C° 0 mm 2 m/s 725 mmHg 93%
    02:00 +3°C° 0 mm 2 m/s 725 mmHg 93%
    03:00 +3°C° 0 mm 2 m/s 725 mmHg 93%
    04:00 +3°C° 0 mm 2 m/s 725 mmHg 93%
    05:00 +3°C° 0 mm 2 m/s 725 mmHg 91%
    06:00 +4°C° 0 mm 2 m/s 725 mmHg 89%
    07:00 +5°C° 0 mm 2 m/s 725 mmHg 87%
    08:00 +7°C° 0 mm 2 m/s 726 mmHg 80%
    09:00 +8°C° 0 mm 3 m/s 726 mmHg 73%
    10:00 +10°C° 0 mm 4 m/s 726 mmHg 66%
    11:00 +11°C° 0.2 mm 4 m/s 726 mmHg 63%
    12:00 +11°C° 0.2 mm 4 m/s 726 mmHg 59%
    13:00 +12°C° 0.2 mm 5 m/s 725 mmHg 56%
    14:00 +11°C° 0.1 mm 4 m/s 725 mmHg 59%
    15:00 +11°C° 0.1 mm 4 m/s 725 mmHg 61%
    16:00 +11°C° 0.1 mm 3 m/s 725 mmHg 64%
    17:00 +9°C° 0 mm 2 m/s 725 mmHg 71%
    18:00 +7°C° 0 mm 2 m/s 725 mmHg 77%
    19:00 +7°C° 0 mm 1 m/s 725 mmHg 84%
    20:00 +7°C° 0 mm 1 m/s 725 mmHg 85%
    21:00 +6°C° 0 mm 1 m/s 725 mmHg 85%
    22:00 +6°C° 0 mm 1 m/s 725 mmHg 86%
    23:00 +5°C° 0 mm 2 m/s 725 mmHg 87%

    Amanhã, 21 Setembro, Sábado

    Tempo Temperatura Precipitação Vento Pressão Humidade
    00:00 +5°C° 0 mm 2 m/s 725 mmHg 88%
    01:00 +5°C° 0 mm 2 m/s 725 mmHg 88%
    02:00 +4°C° 0 mm 2 m/s 725 mmHg 88%
    03:00 +5°C° 0 mm 1 m/s 725 mmHg 89%
    04:00 +5°C° 0 mm 1 m/s 725 mmHg 89%
    05:00 +6°C° 0 mm 1 m/s 725 mmHg 85%
    06:00 +7°C° 0 mm 1 m/s 725 mmHg 82%
    07:00 +8°C° 0 mm 1 m/s 725 mmHg 78%
    08:00 +10°C° 0 mm 1 m/s 726 mmHg 70%
    09:00 +13°C° 0 mm 1 m/s 726 mmHg 61%
    10:00 +15°C° 0 mm 1 m/s 726 mmHg 52%
    11:00 +16°C° 0 mm 1 m/s 726 mmHg 50%
    12:00 +18°C° 0 mm 1 m/s 725 mmHg 48%
    13:00 +19°C° 0 mm 1 m/s 725 mmHg 47%
    14:00 +18°C° 0 mm 1 m/s 725 mmHg 50%
    15:00 +18°C° 0 mm 1 m/s 724 mmHg 54%
    16:00 +16°C° 0 mm 1 m/s 724 mmHg 58%
    17:00 +14°C° 0 mm 1 m/s 724 mmHg 65%
    18:00 +12°C° 0 mm 1 m/s 724 mmHg 72%
    19:00 +10°C° 0 mm 1 m/s 723 mmHg 79%
    20:00 +10°C° 0 mm 1 m/s 723 mmHg 80%
    21:00 +9°C° 0 mm 1 m/s 723 mmHg 81%
    22:00 +9°C° 0 mm 1 m/s 723 mmHg 82%
    23:00 +9°C° 0 mm 1 m/s 723 mmHg 82%

    Depois de amanhã, 22 Setembro, Domingo

    Tempo Temperatura Precipitação Vento Pressão Humidade
    00:00 +8°C° 0 mm 1 m/s 723 mmHg 82%
    01:00 +8°C° 0 mm 1 m/s 723 mmHg 82%
    02:00 +8°C° 0 mm 1 m/s 723 mmHg 82%
    03:00 +8°C° 0 mm 1 m/s 723 mmHg 82%
    04:00 +8°C° 0 mm 1 m/s 722 mmHg 82%
    05:00 +9°C° 0 mm 1 m/s 722 mmHg 79%
    06:00 +9°C° 0 mm 1 m/s 723 mmHg 76%
    07:00 +10°C° 0 mm 1 m/s 723 mmHg 73%
    08:00 +13°C° 0 mm 1 m/s 723 mmHg 66%
    09:00 +15°C° 0 mm 1 m/s 723 mmHg 58%
    10:00 +19°C° 0 mm 1 m/s 723 mmHg 51%
    11:00 +20°C° 0 mm 1 m/s 722 mmHg 49%
    12:00 +21°C° 0 mm 1 m/s 722 mmHg 47%
    13:00 +22°C° 0 mm 1 m/s 722 mmHg 45%
    14:00 +21°C° 0 mm 1 m/s 721 mmHg 49%
    15:00 +21°C° 0 mm 1 m/s 721 mmHg 53%
    16:00 +20°C° 0 mm 1 m/s 720 mmHg 57%
    17:00 +18°C° 0 mm 1 m/s 720 mmHg 64%
    18:00 +14°C° 0 mm 1 m/s 720 mmHg 70%
    19:00 +12°C° 0 mm 1 m/s 720 mmHg 76%
    20:00 +11°C° 0 mm 1 m/s 719 mmHg 76%
    21:00 +11°C° 0 mm 1 m/s 719 mmHg 76%
    22:00 +10°C° 0 mm 1 m/s 719 mmHg 76%
    23:00 +10°C° 0 mm 1 m/s 719 mmHg 76%

    23 Setembro, Segunda-feira

    Tempo Temperatura Precipitação Vento Pressão Humidade
    00:00 +10°C° 0 mm 1 m/s 719 mmHg 75%
    01:00 +10°C° 0 mm 1 m/s 718 mmHg 74%
    02:00 +10°C° 0 mm 1 m/s 718 mmHg 71%
    03:00 +10°C° 0 mm 1 m/s 718 mmHg 68%
    04:00 +11°C° 0 mm 1 m/s 718 mmHg 65%
    05:00 +11°C° 0 mm 1 m/s 717 mmHg 64%
    06:00 +12°C° 0 mm 1 m/s 717 mmHg 62%
    07:00 +13°C° 0 mm 1 m/s 717 mmHg 61%
    08:00 +13°C° 0 mm 2 m/s 717 mmHg 60%
    09:00 +14°C° 0 mm 2 m/s 717 mmHg 60%
    10:00 +15°C° 0 mm 2 m/s 718 mmHg 60%
    11:00 +15°C° 0 mm 2 m/s 717 mmHg 63%
    12:00 +15°C° 0 mm 2 m/s 717 mmHg 66%
    13:00 +15°C° 0 mm 2 m/s 717 mmHg 68%
    14:00 +15°C° 0 mm 2 m/s 717 mmHg 70%
    15:00 +14°C° 0 mm 2 m/s 716 mmHg 72%
    16:00 +14°C° 0 mm 1 m/s 716 mmHg 74%
    17:00 +14°C° 0 mm 1 m/s 716 mmHg 75%
    18:00 +13°C° 0 mm 1 m/s 716 mmHg 77%
    19:00 +13°C° 0 mm 1 m/s 716 mmHg 79%
    20:00 +13°C° 0 mm 1 m/s 716 mmHg 79%
    21:00 +12°C° 0 mm 1 m/s 716 mmHg 80%
    22:00 +12°C° 0 mm 1 m/s 716 mmHg 80%
    23:00 +12°C° 0 mm 1 m/s 716 mmHg 81%

    24 Setembro, Terça-feira

    Tempo Temperatura Precipitação Vento Pressão Humidade
    00:00 +12°C° 0 mm 1 m/s 716 mmHg 82%
    01:00 +11°C° 0 mm 1 m/s 716 mmHg 83%
    02:00 +11°C° 0 mm 1 m/s 716 mmHg 83%
    03:00 +10°C° 0 mm 0 m/s 715 mmHg 83%
    04:00 +10°C° 0 mm 0 m/s 715 mmHg 83%
    05:00 +11°C° 0 mm 0 m/s 715 mmHg 83%
    06:00 +11°C° 0 mm 0 m/s 715 mmHg 82%
    07:00 +11°C° 0 mm 0 m/s 715 mmHg 81%
    08:00 +12°C° 0 mm 0 m/s 715 mmHg 80%
    09:00 +12°C° 0 mm 0 m/s 715 mmHg 79%
    10:00 +13°C° 0 mm 0 m/s 716 mmHg 77%
    11:00 +13°C° 0 mm 0 m/s 715 mmHg 78%
    12:00 +13°C° 0 mm 0 m/s 715 mmHg 79%
    13:00 +13°C° 0 mm 0 m/s 715 mmHg 80%
    14:00 +14°C° 0 mm 1 m/s 715 mmHg 80%
    15:00 +14°C° 0 mm 1 m/s 715 mmHg 80%
    16:00 +14°C° 0 mm 1 m/s 715 mmHg 80%
    17:00 +13°C° 0 mm 1 m/s 715 mmHg 84%
    18:00 +12°C° 0 mm 1 m/s 715 mmHg 87%
    19:00 +11°C° 0 mm 1 m/s 715 mmHg 90%
    20:00 +11°C° 0 mm 1 m/s 715 mmHg 91%
    21:00 +10°C° 0 mm 1 m/s 716 mmHg 91%
    22:00 +9°C° 0 mm 0 m/s 716 mmHg 92%
    23:00 +9°C° 0 mm 0 m/s 716 mmHg 92%

    25 Setembro, Quarta-feira

    Tempo Temperatura Precipitação Vento Pressão Humidade
    00:00 +9°C° 0 mm 0 m/s 715 mmHg 93%
    01:00 +8°C° 0 mm 0 m/s 715 mmHg 93%
    02:00 +8°C° 0 mm 0 m/s 715 mmHg 93%
    03:00 +8°C° 0 mm 0 m/s 715 mmHg 93%
    04:00 +8°C° 0 mm 0 m/s 715 mmHg 93%
    05:00 +9°C° 0 mm 0 m/s 715 mmHg 91%
    06:00 +10°C° 0 mm 0 m/s 715 mmHg 89%
    07:00 +10°C° 0 mm 0 m/s 715 mmHg 87%
    08:00 +13°C° 0 mm 1 m/s 716 mmHg 81%
    09:00 +15°C° 0 mm 1 m/s 716 mmHg 74%
    10:00 +18°C° 0 mm 1 m/s 716 mmHg 68%
    11:00 +19°C° 0 mm 1 m/s 716 mmHg 66%
    12:00 +19°C° 0 mm 1 m/s 716 mmHg 63%
    13:00 +20°C° 0 mm 1 m/s 716 mmHg 61%
    14:00 +20°C° 0.1 mm 1 m/s 715 mmHg 66%
    15:00 +19°C° 0.1 mm 1 m/s 715 mmHg 71%
    16:00 +18°C° 0.1 mm 1 m/s 715 mmHg 76%
    17:00 +16°C° 0.1 mm 1 m/s 715 mmHg 81%
    18:00 +15°C° 0.1 mm 1 m/s 715 mmHg 85%
    19:00 +13°C° 0.1 mm 1 m/s 715 mmHg 89%
    20:00 +13°C° 0.1 mm 1 m/s 715 mmHg 89%
    21:00 +14°C° 0.1 mm 1 m/s 715 mmHg 88%
    22:00 +14°C° 0.1 mm 1 m/s 715 mmHg 88%
    23:00 +14°C° 0.1 mm 1 m/s 715 mmHg 88%
    Mostrar mais